STARLINK-34102, 63806

Orbit data source: Space-Track

STARLINK-34102, 63806 is a payload satellite owned by SpaceX/Seattle (US) in LEO that was launched on Sun, 04 May 2025 UTC via an FALCON 9 launch vehicle from the Air Force Eastern Test Range (AFETR). Payload-class satellites include a variety of spacecraft equipped with specific instruments for various scientific and technological missions. These include communications satellites like Starlink; space stations such as the ISS; scientific satellites like the Hubble; Earth observation satellites from companies like Planet Labs, Umbra, and HawkEye 360; GPS; miniature CubeSats for education and research; and military/defense satellites.

Loading next visibility...
Identifier
63806, 2025-092C
Orbit
LEO
Country
Flag of USUS
Related business
Manufacturer
SpaceX/Seattle
Mission
Operational Commercial Communications
Bus & Motor
STARLINK V2MO, Unknown motor
Mass
575 kg wet, ~530 kg dry
Launch date (UTC)
2025-05-04 (9 months ago)
Launch vehicle
FALCON 9
Launch site
Air Force Eastern Test Range (AFETR)
Object type
Payload
Rocket body
Debris
Shape & HBR
Box + 2 Pan, 17.7 m
Radar Cross Section
36.964 m², Large (>1 m²)

Expand to show TLE details & history
Last TLE update: 20 hours ago

TLE from 20 hours ago
0 STARLINK-34102
1 63806U 25092C   26034.31540244  .00020103  00000-0  73821-3 0  9999
2 63806  43.0045   7.0154 0001947 257.9812 102.0822 15.27572320 43403
Epoch: 2026-02-03T07:34Z
TLE epoch observation values (Epoch: 2026-02-03T07:34:10.770Z)
Latitude
-0°
Longitude
119.97243°
Altitude
483.128 km
Speed
7.625 km/s
True Right ascension
00h 28m 03s
True Declination
0° 00' 00"
Sunlit
Object was in daylight at epoch
Visualization orbit readout
Latitude
Unknown
Longitude
Unknown
Altitude
Unknown
Speed
Unknown
Apparent Right ascension
Unknown
Apparent Declination
Unknown
Sunlit
N/A
Visualization observer readout
Local Sidereal Time
05:39:18
Azimuth
Unknown
Elevation
Unknown
Doppler factor
Unknown
Orbital elements
Apogee altitude
486.353 km
Perigee altitude
483.68 km
Semi-major axis
6,863.154 km
Eccentricity
0.00019
Inclination
43.0045°
RAAN
7.0154°
Arg. of periapsis
257.9812°
True anomaly
102.10402°
Mean anomaly
102.0822°
Eccentric anomaly
102.09311°
Mean motion
3.81731 °/min
Orbital period
94.31 mins
BSTAR
0.00073821
Loading maneuver chart data...
Computing Atmospheric mass density...
Loading historical data...
Loading historical data...
Loading historical data...
Loading historical data...
Loading historical data...
Loading historical data...
Loading historical data...

Documentation

Showing up to 5 results
|